When you browse on this site, cookies collect data to enhance your experience and personalize the content and advertising you see.
Visit our Privacy Policy to learn more. By continuing to use the site, you agree to this use of cookies and data.
  • In Deutschland
  • Länderverzeichnis
  • Für 7 Tage
  • Wassertemperatur
  • Wetterkarte
  • Widgets
  • user-avatar
    Anmelden

    Stündliche Wetter Melbourne

    Heute, 16 September, Montag

    Zeit Temperatur Niederschläge Wind Luftdruck Luftfeuchtigkeit
    00:00 +14°C° 1.1 mm 5 m/S 759 mmHg 87%
    01:00 +13°C° 1.1 mm 5 m/S 760 mmHg 89%
    02:00 +12°C° 0.8 mm 5 m/S 760 mmHg 86%
    03:00 +11°C° 0.8 mm 4 m/S 760 mmHg 84%
    04:00 +10°C° 0 mm 3 m/S 761 mmHg 82%
    05:00 +10°C° 0 mm 3 m/S 761 mmHg 82%
    06:00 +10°C° 0 mm 4 m/S 761 mmHg 82%
    07:00 +10°C° 0 mm 4 m/S 762 mmHg 82%
    08:00 +10°C° 0 mm 4 m/S 762 mmHg 73%
    09:00 +10°C° 0 mm 5 m/S 763 mmHg 65%
    10:00 +12°C° 0 mm 4 m/S 764 mmHg 60%
    11:00 +12°C° 0 mm 5 m/S 764 mmHg 57%
    12:00 +11°C° 0 mm 6 m/S 764 mmHg 53%
    13:00 +11°C° 0 mm 7 m/S 764 mmHg 50%
    14:00 +11°C° 0 mm 7 m/S 764 mmHg 50%
    15:00 +11°C° 0 mm 6 m/S 764 mmHg 50%
    16:00 +10°C° 0 mm 6 m/S 765 mmHg 51%
    17:00 +9°C° 0 mm 5 m/S 765 mmHg 54%
    18:00 +8°C° 0 mm 5 m/S 766 mmHg 58%
    19:00 +7°C° 0 mm 5 m/S 766 mmHg 61%
    20:00 +7°C° 0 mm 4 m/S 767 mmHg 63%
    21:00 +6°C° 0 mm 4 m/S 767 mmHg 64%
    22:00 +6°C° 0 mm 4 m/S 768 mmHg 66%
    23:00 +5°C° 0 mm 4 m/S 768 mmHg 66%

    Morgen, 17 September, Dienstag

    Zeit Temperatur Niederschläge Wind Luftdruck Luftfeuchtigkeit
    00:00 +5°C° 0 mm 4 m/S 768 mmHg 67%
    01:00 +5°C° 0 mm 4 m/S 768 mmHg 68%
    02:00 +5°C° 0 mm 4 m/S 768 mmHg 69%
    03:00 +5°C° 0 mm 3 m/S 768 mmHg 69%
    04:00 +4°C° 0 mm 3 m/S 768 mmHg 70%
    05:00 +4°C° 0 mm 3 m/S 768 mmHg 69%
    06:00 +4°C° 0 mm 3 m/S 769 mmHg 68%
    07:00 +4°C° 0 mm 3 m/S 769 mmHg 68%
    08:00 +7°C° 0 mm 3 m/S 769 mmHg 61%
    09:00 +9°C° 0 mm 3 m/S 769 mmHg 54%
    10:00 +10°C° 0 mm 3 m/S 769 mmHg 47%
    11:00 +11°C° 0 mm 3 m/S 769 mmHg 45%
    12:00 +12°C° 0 mm 3 m/S 769 mmHg 44%
    13:00 +13°C° 0 mm 4 m/S 769 mmHg 42%
    14:00 +13°C° 0 mm 4 m/S 768 mmHg 44%
    15:00 +12°C° 0 mm 4 m/S 768 mmHg 46%
    16:00 +12°C° 0 mm 4 m/S 768 mmHg 49%
    17:00 +11°C° 0 mm 3 m/S 768 mmHg 55%
    18:00 +9°C° 0 mm 3 m/S 769 mmHg 62%
    19:00 +8°C° 0 mm 2 m/S 770 mmHg 68%
    20:00 +7°C° 0 mm 2 m/S 770 mmHg 71%
    21:00 +7°C° 0 mm 2 m/S 770 mmHg 74%
    22:00 +7°C° 0 mm 1 m/S 770 mmHg 77%
    23:00 +7°C° 0 mm 1 m/S 770 mmHg 79%

    übermorgen, 18 September, Mittwoch

    Zeit Temperatur Niederschläge Wind Luftdruck Luftfeuchtigkeit
    00:00 +7°C° 0 mm 1 m/S 771 mmHg 80%
    01:00 +6°C° 0 mm 1 m/S 771 mmHg 82%
    02:00 +6°C° 0 mm 1 m/S 770 mmHg 83%
    03:00 +6°C° 0 mm 1 m/S 770 mmHg 83%
    04:00 +6°C° 0 mm 1 m/S 770 mmHg 84%
    05:00 +6°C° 0 mm 1 m/S 770 mmHg 83%
    06:00 +6°C° 0 mm 1 m/S 770 mmHg 82%
    07:00 +6°C° 0 mm 1 m/S 771 mmHg 80%
    08:00 +9°C° 0 mm 1 m/S 770 mmHg 69%
    09:00 +12°C° 0 mm 2 m/S 770 mmHg 57%
    10:00 +15°C° 0 mm 2 m/S 770 mmHg 46%
    11:00 +16°C° 0 mm 2 m/S 769 mmHg 43%
    12:00 +18°C° 0 mm 2 m/S 768 mmHg 40%
    13:00 +19°C° 0 mm 2 m/S 768 mmHg 37%
    14:00 +19°C° 0 mm 2 m/S 767 mmHg 38%
    15:00 +20°C° 0 mm 1 m/S 767 mmHg 40%
    16:00 +20°C° 0 mm 1 m/S 767 mmHg 42%
    17:00 +18°C° 0 mm 1 m/S 767 mmHg 48%
    18:00 +15°C° 0 mm 1 m/S 767 mmHg 55%
    19:00 +13°C° 0 mm 1 m/S 767 mmHg 62%
    20:00 +12°C° 0 mm 2 m/S 767 mmHg 66%
    21:00 +10°C° 0 mm 2 m/S 768 mmHg 70%
    22:00 +10°C° 0 mm 2 m/S 768 mmHg 75%
    23:00 +9°C° 0 mm 2 m/S 767 mmHg 76%

    19 September, Donnerstag

    Zeit Temperatur Niederschläge Wind Luftdruck Luftfeuchtigkeit
    00:00 +9°C° 0 mm 2 m/S 767 mmHg 78%
    01:00 +8°C° 0 mm 2 m/S 767 mmHg 80%
    02:00 +8°C° 0 mm 2 m/S 766 mmHg 80%
    03:00 +8°C° 0 mm 3 m/S 766 mmHg 81%
    04:00 +8°C° 0 mm 3 m/S 765 mmHg 81%
    05:00 +8°C° 0 mm 3 m/S 765 mmHg 79%
    06:00 +8°C° 0 mm 3 m/S 765 mmHg 78%
    07:00 +8°C° 0 mm 4 m/S 765 mmHg 77%
    08:00 +12°C° 0 mm 4 m/S 764 mmHg 68%
    09:00 +14°C° 0 mm 5 m/S 764 mmHg 59%
    10:00 +17°C° 0 mm 6 m/S 764 mmHg 50%
    11:00 +19°C° 0 mm 6 m/S 763 mmHg 49%
    12:00 +21°C° 0 mm 6 m/S 762 mmHg 48%
    13:00 +22°C° 0 mm 7 m/S 761 mmHg 47%
    14:00 +22°C° 0 mm 7 m/S 761 mmHg 50%
    15:00 +21°C° 0 mm 6 m/S 760 mmHg 53%
    16:00 +21°C° 0 mm 6 m/S 759 mmHg 56%
    17:00 +20°C° 0 mm 6 m/S 759 mmHg 58%
    18:00 +19°C° 0 mm 6 m/S 759 mmHg 61%
    19:00 +19°C° 0 mm 5 m/S 760 mmHg 63%
    20:00 +19°C° 0 mm 5 m/S 760 mmHg 63%
    21:00 +19°C° 0 mm 5 m/S 759 mmHg 63%
    22:00 +19°C° 0 mm 4 m/S 759 mmHg 63%
    23:00 +19°C° 0 mm 5 m/S 759 mmHg 62%

    20 September, Freitag

    Zeit Temperatur Niederschläge Wind Luftdruck Luftfeuchtigkeit
    00:00 +19°C° 0 mm 6 m/S 759 mmHg 62%
    01:00 +19°C° 0 mm 6 m/S 758 mmHg 61%
    02:00 +18°C° 0 mm 7 m/S 758 mmHg 61%
    03:00 +18°C° 0 mm 7 m/S 758 mmHg 60%
    04:00 +18°C° 0 mm 8 m/S 757 mmHg 60%
    05:00 +18°C° 0 mm 8 m/S 758 mmHg 60%
    06:00 +18°C° 0 mm 7 m/S 758 mmHg 60%
    07:00 +18°C° 0 mm 7 m/S 758 mmHg 61%
    08:00 +20°C° 0 mm 7 m/S 758 mmHg 58%
    09:00 +21°C° 0 mm 8 m/S 758 mmHg 56%
    10:00 +22°C° 0 mm 8 m/S 758 mmHg 53%
    11:00 +23°C° 0 mm 8 m/S 757 mmHg 52%
    12:00 +23°C° 0 mm 7 m/S 756 mmHg 51%
    13:00 +24°C° 0 mm 7 m/S 756 mmHg 50%
    14:00 +23°C° 0.3 mm 7 m/S 755 mmHg 53%
    15:00 +23°C° 0.3 mm 6 m/S 755 mmHg 57%
    16:00 +23°C° 0.3 mm 6 m/S 754 mmHg 60%
    17:00 +21°C° 0.9 mm 5 m/S 755 mmHg 67%
    18:00 +19°C° 0.9 mm 5 m/S 755 mmHg 74%
    19:00 +16°C° 0.9 mm 5 m/S 755 mmHg 81%
    20:00 +15°C° 2.5 mm 4 m/S 755 mmHg 83%
    21:00 +15°C° 2.5 mm 2 m/S 755 mmHg 85%
    22:00 +14°C° 2.5 mm 1 m/S 755 mmHg 87%
    23:00 +13°C° 3.4 mm 3 m/S 755 mmHg 87%

    21 September, Samstag

    Zeit Temperatur Niederschläge Wind Luftdruck Luftfeuchtigkeit
    00:00 +12°C° 3.4 mm 4 m/S 756 mmHg 88%
    01:00 +10°C° 3.4 mm 6 m/S 756 mmHg 88%
    02:00 +10°C° 0.3 mm 5 m/S 756 mmHg 83%
    03:00 +9°C° 0.3 mm 5 m/S 756 mmHg 79%
    04:00 +10°C° 0.3 mm 4 m/S 756 mmHg 74%
    05:00 +8°C° 0 mm 4 m/S 757 mmHg 74%
    06:00 +7°C° 0 mm 5 m/S 758 mmHg 74%
    07:00 +6°C° 0 mm 5 m/S 759 mmHg 75%
    08:00 +8°C° 0 mm 6 m/S 759 mmHg 66%
    09:00 +9°C° 0 mm 7 m/S 760 mmHg 58%
    10:00 +10°C° 0 mm 7 m/S 760 mmHg 49%
    11:00 +11°C° 0 mm 8 m/S 760 mmHg 46%
    12:00 +12°C° 0 mm 8 m/S 760 mmHg 44%
    13:00 +13°C° 0 mm 9 m/S 760 mmHg 41%
    14:00 +12°C° 0.1 mm 8 m/S 761 mmHg 47%
    15:00 +11°C° 0.1 mm 7 m/S 761 mmHg 53%
    16:00 +11°C° 0.1 mm 6 m/S 761 mmHg 59%
    17:00 +10°C° 0.1 mm 5 m/S 762 mmHg 63%
    18:00 +10°C° 0.1 mm 4 m/S 763 mmHg 67%
    19:00 +9°C° 0.1 mm 3 m/S 764 mmHg 71%
    20:00 +9°C° 0 mm 3 m/S 764 mmHg 72%
    21:00 +8°C° 0 mm 3 m/S 765 mmHg 73%
    22:00 +8°C° 0 mm 3 m/S 765 mmHg 74%
    23:00 +8°C° 0 mm 3 m/S 765 mmHg 74%
    Mehr zeigen